Tracking 17636 objects as of 1-May-2016
HD Live streaming from Space Station
objects crossing your sky now

CRRES DEB (CANISTER)

Track CRRES DEB (CANISTER) now!


NORAD ID: 27051
Int'l Code: 1990-065U
Perigee: 315.8 km
Apogee: 30,274.2 km
Inclination: 18.2 °
Period: 529.0 minutes
Semi major axis: 21666 km
RCS: 0.1304 m2 (medium)
Launch date: July 25, 1990
Source: United States (US)
Launch site: AIR FORCE EASTERN TEST RANGE (AFETR)

Note: This is SATELLITE DEBRIS
Your satellite tracking list
Your tracking list is empty





NASA's NSSDC Master Catalog

Two Line Element Set (TLE):
1 27051U 90065U   16120.03532652  .00000243  00000-0  19308-3 0  9994
2 27051  18.1882  66.8864 6913703 210.8333  78.2148  2.72229096158061
Source of the keplerian elements: AFSPC

N2YO: 295